TimeEDT,TemperatureF,Dew PointF,Humidity,Sea Level PressureIn,VisibilityMPH,Wind Direction,Wind SpeedMPH,Gust SpeedMPH,PrecipitationIn,Events,Conditions,WindDirDegrees,DateUTC
12:56 AM,55.0,41.0,59,29.83,10.0,SSW,13.8,26.5,N/A,,Scattered Clouds,210,2013-10-21 04:56:00
1:56 AM,54.0,41.0,62,29.83,10.0,SSW,12.7,-,N/A,,Mostly Cloudy,210,2013-10-21 05:56:00
2:56 AM,54.0,42.1,64,29.83,10.0,SSW,13.8,-,N/A,,Overcast,210,2013-10-21 06:56:00
3:56 AM,54.0,42.1,64,29.83,10.0,SW,12.7,-,N/A,,Overcast,220,2013-10-21 07:56:00
4:56 AM,52.0,44.1,74,29.83,10.0,SW,8.1,-,0.00,,Overcast,220,2013-10-21 08:56:00
5:56 AM,51.1,43.0,74,29.83,10.0,SW,8.1,-,N/A,,Mostly Cloudy,220,2013-10-21 09:56:00
6:56 AM,52.0,43.0,71,29.83,10.0,SSW,10.4,-,N/A,,Mostly Cloudy,210,2013-10-21 10:56:00
7:56 AM,51.1,43.0,74,29.85,10.0,SSW,8.1,-,N/A,,Overcast,210,2013-10-21 11:56:00
8:56 AM,50.0,43.0,77,29.86,10.0,SSW,9.2,-,N/A,,Overcast,200,2013-10-21 12:56:00
9:56 AM,50.0,45.0,83,29.86,10.0,SSW,11.5,-,0.00,,Overcast,200,2013-10-21 13:56:00
10:56 AM,50.0,45.0,83,29.86,10.0,SW,10.4,-,0.00,Rain,Light Rain,220,2013-10-21 14:56:00
11:56 AM,50.0,46.0,86,29.86,10.0,SSW,13.8,19.6,0.00,,Overcast,210,2013-10-21 15:56:00
12:56 PM,54.0,46.9,77,29.84,10.0,SSW,15.0,19.6,0.01,,Mostly Cloudy,210,2013-10-21 16:56:00
1:56 PM,54.0,45.0,72,29.83,10.0,SSW,15.0,23.0,N/A,,Overcast,210,2013-10-21 17:56:00
2:20 PM,51.8,44.6,76,29.82,10.0,West,13.8,21.9,N/A,,Overcast,270,2013-10-21 18:20:00
2:56 PM,51.1,44.1,77,29.83,10.0,West,10.4,17.3,N/A,,Overcast,270,2013-10-21 18:56:00
3:56 PM,48.9,42.1,77,29.83,10.0,West,9.2,19.6,N/A,,Overcast,270,2013-10-21 19:56:00
4:56 PM,48.9,39.9,71,29.83,10.0,West,10.4,-,N/A,,Overcast,270,2013-10-21 20:56:00
5:56 PM,46.9,37.9,71,29.85,10.0,West,11.5,20.7,N/A,,Overcast,270,2013-10-21 21:56:00
6:21 PM,46.4,37.4,71,29.85,10.0,West,8.1,16.1,N/A,,Overcast,280,2013-10-21 22:21:00
6:56 PM,45.0,36.0,71,29.87,10.0,WNW,9.2,-,N/A,,Overcast,290,2013-10-21 22:56:00
7:56 PM,44.1,35.1,71,29.88,10.0,West,8.1,-,N/A,,Overcast,270,2013-10-21 23:56:00
8:56 PM,41.0,34.0,76,29.88,10.0,WSW,4.6,-,N/A,,Partly Cloudy,250,2013-10-22 00:56:00
9:56 PM,39.9,34.0,79,29.87,10.0,SSW,4.6,-,N/A,,Scattered Clouds,210,2013-10-22 01:56:00
10:56 PM,41.0,34.0,76,29.87,10.0,West,9.2,-,N/A,,Mostly Cloudy,270,2013-10-22 02:56:00
11:56 PM,41.0,30.9,67,29.87,10.0,West,11.5,21.9,N/A,,Overcast,270,2013-10-22 03:56:00